Regional Weather Roundup
Issued by NWS Albany, NY

Home | Current Version | Previous Version | Text Only | Print | Product List | Glossary On
Versions: 1 2 3 4 5 6 7 8 9 10 11 12 13 14 15 16 17 18 19 20 21 22 23 24 25 26 27 28 29 30 31 32 33 34 35 36 37 38 39 40 41 42 43 44 45 46 47 48 49 50
000
ASUS41 KALY 061110
RWRALY

NEW YORK STATE HOURLY WEATHER ROUNDUP
NATIONAL WEATHER SERVICE ALBANY NY
700 AM EDT FRI MAY 06 2016

NOTE: "FAIR" INDICATES FEW OR NO CLOUDS BELOW 12,000 FEET WITH NO
SIGNIFICANT WEATHER AND/OR NO OBSTRUCTIONS TO VISIBILITY.

NYZ032-033-038>043-046>054-057>066-NYZ062>081-082-084-061200-
EAST


CITY           SKY/WX    TMP DP  RH WIND       PRES   REMARKS
ALBANY         PTSUNNY   52  41  66 N10       29.76R
GLENS FALLS    MOSUNNY   51  40  65 N3        29.78R
POUGHKEEPSIE   CLOUDY    51  47  86 E3        29.71R
MONTGOMERY     LGT RAIN  50  47  89 CALM      29.70R FOG
WHITE PLAINS   RAIN      47  45  93 NE7       29.69R FOG
ISLIP          DRIZZLE   47  44  90 NE10      29.69S FOG
NEW YORK CITY  LGT RAIN  50  49  96 NE15      29.69R
CENTRAL PARK   LGT RAIN  48  45  89 NE7       29.71S FOG
$$

NYZ005>009-017-018-044>046-055-056-061200-
CENTRAL


CITY           SKY/WX    TMP DP  RH WIND       PRES   REMARKS
FULTON         MOSUNNY   49  41  74 N8        29.82R
SYRACUSE       CLOUDY    47  43  86 N6        29.79S
ROME           CLOUDY    52  41  66 NE7       29.79R
ELMIRA         CLOUDY    49  41  74 N8        29.76S
BINGHAMTON     CLOUDY    48  42  80 N9        29.73R
MONTICELLO     CLOUDY    48  45  87 N5        29.69S
$$

NYZ026>034-041>043-087-061200-
NORTH


CITY           SKY/WX    TMP DP  RH WIND       PRES   REMARKS
WATERTOWN      MOSUNNY   41  38  89 CALM      29.84R
FORT DRUM      NOT AVBL
MASSENA        SUNNY     46  37  71 N9        29.87R
SARANAC LAKE   SUNNY     39  34  82 N5        29.80R
PLATTSBURGH    MOSUNNY   47  37  68 N14       29.83R
$$

NYZ001>004-010>016-019>021-085-061200-
WEST


CITY           SKY/WX    TMP DP  RH WIND       PRES   REMARKS
NIAGARA FALLS  PTCLDY    48  41  76 N6        29.84R
BUFFALO        PTCLDY    45  42  89 CALM      29.84R
DUNKIRK        PTCLDY    41  40  96 S3        29.85R
JAMESTOWN      CLEAR     45  37  76 NW7       29.82S
WELLSVILLE     CLOUDY    46  40  79 N9        29.80R
ROCHESTER      MOSUNNY   49  44  83 N10       29.84R
PENN YAN       CLOUDY    49  40  71 N9        29.80S
$$

             KEY
       WCI = WIND CHILL INDEX
       VSB = VISIBILITY
       HX  = HEAT INDEX
$$



USA.gov is the U.S. government's official web portal to all federal, state and local government web resources and services.